Regional Weather Roundup
Issued by NWS

Home | Current Version | Previous Version | Graphics & Text | Print | Product List | Glossary On
Versions: 1 2 3 4 5 6 7 8 9 10 11 12 13 14 15 16 17 18 19 20 21 22 23 24 25 26 27 28 29 30 31 32 33 34 35 36 37 38 39 40 41 42 43 44 45 46 47 48 49 50
000
ASUS45 KSLC 281210
RWRUT

UTAH REGIONAL WEATHER ROUNDUP
NATIONAL WEATHER SERVICE SALT LAKE CITY UT
500 AM MST WED JAN 28 2015

UTZ001>011-023>025-281300-

NORTHERN UTAH

CITY           SKY/WX    TMP DP  RH WIND       PRES   REMARKS
BRIGHAM CITY   CLOUDY    43  37  80 S5        30.21S
HILL AFB       CLOUDY    40  39  99 E6        30.21S
LOGAN          CLOUDY    39  37  92 SE6       30.19R WCI  35
OGDEN          CLOUDY    41  39  93 SE7       30.21S
PROVO AIRPORT  CLOUDY    39  34  81 NW3       30.23R
SALT LAKE CITY CLOUDY    42  37  82 S3        30.21R
VERNAL         CLEAR     27  23  85 NW5       30.23S WCI  22
WENDOVER       MOCLDY    34  30  86 W3        30.22S
HEBER CITY     CLOUDY    37  32  81 CALM      30.21S
WEST JORDAN    CLOUDY    45  36  70 S10       30.22R

$$

UTZ012>022-026-027-281300-

SOUTHERN/CENTRAL UTAH

CITY           SKY/WX    TMP DP  RH WIND       PRES   REMARKS
BLANDING       CLEAR     34  32  90 CALM      30.32F
BRYCE CANYON   CLEAR     23  20  88 W7        30.28S WCI  15
CEDAR CITY     CLEAR     29  27  92 CALM      30.25R
DELTA          PTCLDY    38  33  84 S8        30.23S WCI  32
MILFORD        CLEAR     36  33  89 SW13      30.23S WCI  27
MOAB/CYNLANDS  CLEAR     28  27  96 CALM      30.23F
PRICE          MOCLDY    31  26  82 NE3       30.23S
ST GEORGE      CLOUDY    41  36  81 S3        30.28S
KANAB          CLEAR     32  32 100 N3        30.32R

$$

REGIONAL REPORTS     COLORADO/ARIZONA

CITY           SKY/WX    TMP DP  RH WIND       PRES   REMARKS
CRAIG, CO      CLOUDY    35  33  92 CALM      30.22S
GRAND JUNCTION CLEAR     32  26  78 E3        30.24F
RIFLE          CLEAR     29  24  82 E3        30.25S
MONTROSE       CLOUDY    30  26  85 S6        30.27S WCI  24
CORTEZ         PTCLDY    31  28  89 E7        30.28R WCI  24
PAGE, AZ       NOT AVBL
GRAND CANYON   CLOUDY    27  26  96 CALM      30.31R
KINGMAN        CLEAR     38  37  97 CALM      30.25S
FLAGSTAFF      MOCLDY    25  23  92 CALM      30.30R FOG

$$

REGIONAL REPORTS    NEVADA/IDAHO/WYOMING

CITY           SKY/WX    TMP DP  RH WIND       PRES   REMARKS
LAS VEGAS, NV  MOCLDY    49  44  83 W3        30.21S
ELY            MOCLDY    33  33 100 NW5       30.27S WCI  29
ELKO           CLOUDY    39  35  86 SW6       30.27S WCI  35
POCATELLO, ID  CLOUDY    38  38 100 SW13      30.20R FOG     WCI  30
BURLEY         CLOUDY    40  38  93 W6        30.20R
EVANSTON, WY   MOCLDY    33  30  88 SW10      30.19F WCI  25
ROCK SPRINGS   CLOUDY    34  28  79 W12       30.18R WCI  25
KEMMERER       CLOUDY    32  32 100 CALM      30.18S

$$


USA.gov is the U.S. government's official web portal to all federal, state and local government web resources and services.